User: anonymous   Login
Location: Palau
(42.3086°N, 3.1507°E)
Time: 15:53:04
(UTC+00:00)
Language:

STARLINK-1328 - Orbit

View from above orbital plane
View from above orbital plane
View from above satellite
View from above satellite

Ground track
Ground track

The orbit data is extracted from the following two-line orbital elements,

1 45576C 20025AX  21164.47274096 -.00001059  00000-0 -70968-4 0  1644
2 45576  53.0551 283.8708 0001344 118.9511 282.3867 15.06392602    13
Epoch (UTC): 13 June 2021 11:20:44
Eccentricity: 0.0001344
inclination: 53.0551°
perigee height: 546 km
apogee height: 548 km
right ascension of ascending node: 283.8708°
argument of perigee: 118.9511°
revolutions per day: 15.06392602
mean anomaly at epoch: 282.3867°
orbit number at epoch: 1

The dashed part of the orbit path shows where the satellite is in the earth's shadow,  

DLR